Home   Weather   Flensburg   Past weeks

Flag for Germany Past Weather in Flensburg, Schleswig-Holstein, Germany — Yesterday and Last 2 Weeks

Now
30 °F

Chilly.


Feels Like: 21 °F
Forecast: 33 / 36 °F
Wind: 10 mph from Northwest

Location: Soenderborg Lufthavn

Current Time: Jan 17, 2017 at 2:08:43 am

Latest Report: Jan 17, 2017 at 1:20 am


Visibility: N/A

Pressure: 30.51 "Hg

Humidity: 80%

Dew Point: 25 °F

Location of FlensburgLocation

Past Weather in Flensburg — Graph

°F

Flensburg Temperature Yesterday

Maximum temperature yesterday: 36 °F (at 1:20 pm)
Minimum temperature yesterday: 28 °F (at 1:50 am)
Average temperature yesterday: 31 °F

High & Low Weather Summary for the Past Weeks

 TemperatureHumidityPressure
High46 °F (Jan 3, 3:50 pm)100% (Jan 7, 1:20 pm)30.74 "Hg (Jan 7, 1:20 pm)
Low19 °F (Jan 6, 7:20 am)47% (Jan 6, 12:20 pm)29.15 "Hg (Jan 13, 4:20 am)
Average35 °F81%29.93 "Hg
* Reported Jan 2 12:20 am — Jan 17 12:50 am, Flensburg, Weather by CustomWeather, © 2017

Note: Actual official high and low records may vary slightly from our data, if they occured in-between our weather recording intervals... More about our weather records

Advertising

Flensburg Weather History for the Previous 24 Hours

Scroll right to see more
 ConditionsComfort  
Time TempWeatherWind HumidityBarometerVisibility
12:50 am
Tue, Jan 17
30 °FChilly.10 mph80%30.51 "HgN/A
12:20 am30 °FChilly.10 mph80%30.51 "HgN/A
11:50 pm
Mon, Jan 16
32 °FChilly.12 mph80%30.48 "HgN/A
11:20 pm32 °FChilly.12 mph75%30.48 "HgN/A
10:50 pm32 °FClear.13 mph75%30.48 "Hg10 mi
10:20 pm32 °FClear.10 mph80%30.48 "Hg10 mi
9:43 pm32 °FClear.9 mph80%30.48 "Hg10 mi
8:20 pm30 °FClear.8 mph80%30.45 "Hg10 mi
7:50 pm32 °FClear.12 mph75%30.42 "Hg10 mi
6:50 pm32 °FClear.12 mph75%30.42 "Hg10 mi
6:20 pm32 °FClear.12 mph80%30.42 "Hg10 mi
5:50 pm32 °FClear.9 mph75%30.39 "Hg10 mi
5:01 pm32 °FClear.7 mph75%30.39 "Hg10 mi
4:20 pm34 °FSunny.8 mph70%30.39 "Hg10 mi
3:50 pm36 °FSunny.9 mph70%30.39 "Hg10 mi
3:20 pm36 °FSunny.10 mph70%30.36 "Hg10 mi
2:58 pm36 °FSunny.13 mph70%30.36 "Hg10 mi
1:50 pm36 °FSunny.8 mph75%30.36 "Hg10 mi
1:20 pm36 °FSunny.8 mph75%30.36 "Hg10 mi
12:50 pm34 °FSunny.8 mph81%30.36 "Hg10 mi
12:20 pm34 °FSunny.7 mph81%30.36 "Hg10 mi
11:50 am34 °FSunny.7 mph81%30.36 "Hg10 mi
11:20 am34 °FSunny.7 mph81%30.33 "Hg10 mi
10:50 am32 °FSunny.9 mph87%30.33 "Hg10 mi
10:20 am32 °FSunny.7 mph87%30.33 "Hg10 mi
9:50 am30 °FSunny.5 mph86%30.33 "Hg10 mi
9:20 am30 °FSunny.7 mph80%30.33 "Hg10 mi
8:50 am28 °FSunny.8 mph86%30.30 "Hg10 mi
8:20 am28 °FClear.8 mph86%30.30 "Hg10 mi
7:50 am30 °FClear.9 mph80%30.30 "Hg10 mi
7:20 am30 °FClear.10 mph80%30.27 "Hg10 mi
6:50 am30 °FClear.7 mph80%30.27 "Hg10 mi
6:20 am30 °FClear.8 mph80%30.27 "Hg10 mi
5:50 am30 °FChilly.9 mph80%30.27 "HgN/A
5:20 am30 °FChilly.9 mph86%30.24 "HgN/A
4:50 am28 °FChilly.6 mph86%30.24 "HgN/A
4:20 am28 °FChilly.7 mph86%30.24 "HgN/A
3:50 am28 °FChilly.6 mph93%30.24 "HgN/A
3:20 am28 °FChilly.7 mph86%30.24 "HgN/A
2:50 am30 °FChilly.8 mph86%30.24 "HgN/A
2:20 am28 °FChilly.6 mph93%30.24 "HgN/A
Weather by CustomWeather, © 2017

See weather overviewHow to use our weather pages